Vertical_Velocity
0 0 0 1 -0 0 -1 0 1 -1 -1 -1 0 1 1 -1 -1 -1 -1 0 0 0 -1 -0 -1 -1 -1 -1 -0 -0 0 -0 0
-0 0 1 1 -1 -0 -0 0 -0 1 0 -2 -1 -1 -1 0 1 -0 -1 -0 0 1 1 0 -0 1 -0 -0 -1 -0 -0 -0 0
-0 -1 -2 -2 -0 -0 1 0 -1 1 1 1 -1 -1 -1 -0 1 -1 -1 -0 0 -1 -0 1 1 -0 0 1 2 0 -0 -0 0
-0 -0 0 0 -0 1 -0 -1 1 1 0 2 1 1 -1 -1 -0 2 2 0 -1 -0 -1 -0 -0 0 0 0 -0 1 2 1 0
1 -1 -0 1 1 -0 -1 0 0 -2 -0 0 3 1 -0 -1 -1 -0 1 2 1 -0 -1 0 -0 0 0 1 1 0 0 1 0
-1 0 -0 0 0 0 1 1 0 1 1 -0 0 -2 2 0 -1 -1 -1 0 2 2 2 -0 -1 -1 -0 -0 0 0 -0 0 0
1 1 -0 1 0 -0 1 -1 -2 -3 1 -0 -1 -1 1 -1 2 0 -0 0 1 1 -0 2 1 1 -1 -0 0 0 -1 -1 -0
-1 -1 -1 -1 -1 -1 -1 -1 -2 -2 -1 0 0 -1 -2 1 -2 1 2 -4 1 2 0 1 2 2 2 1 -0 -0 0 -0 -1
1 -2 -2 -2 -4 -3 -2 -0 -1 -0 1 1 -0 -0 -0 -2 -2 -1 2 -2 -0 -1 2 2 1 1 1 2 1 0 0 -0 0
-0 1 3 3 3 1 1 -1 -1 -1 -0 -2 -2 -1 -2 -1 -3 -1 -2 1 0 -1 -2 1 1 3 1 2 1 2 1 1 0
1 -1 -2 -3 -1 -0 0 1 -0 -0 -1 -1 -3 -1 2 -1 -0 -1 -3 5 -5 2 1 -0 0 0 2 1 1 1 0 1 0
-1 1 -0 0 -2 -2 -3 -1 -2 -4 -1 -3 -3 -2 -0 1 -1 1 2 -0 -1 0 2 2 1 -1 0 2 2 0 0 -0 -0
-0 -1 -1 -0 1 -0 -2 -2 0 -1 -3 0 -4 -0 -4 -1 0 -0 -1 1 4 -0 -2 3 4 1 -1 -1 2 3 1 0 0
0 -1 -1 0 0 -1 1 0 -2 1 -1 -0 1 2 -0 -4 0 1 -1 -2 -1 2 1 -1 4 3 -2 1 1 2 2 1 0
-3 -3 -2 -3 -2 -1 -1 -0 -3 -4 -2 -2 -2 -4 -2 -0 -2 -2 -2 -2 2 3 3 2 -1 2 -0 -2 -3 0 2 1 -1
-1 -1 -3 -2 -1 -2 -2 -1 1 -1 -8 -5 -3 -3 2 -1 3 -0 1 2 4 2 2 2 2 -0 -0 2 -2 1 2 -7 1
-1 -2 -1 -1 -3 -3 -4 -5 2 4 -6 -7 -8 -0 13 -5 -5 -1 2 4 5 3 4 0 2 3 -18 21 -2 0 -10 22 11
-0 0 -1 -2 -1 -1 -1 -2 -3 0 -4 -6 -12 -8 0 -21 -5 -7 4 3 9 3 7 3 4 9 -15 47 1 14 17 10 5
-2 -2 -3 -3 -3 -4 -3 -2 -2 -2 -3 5 -6 -12 -14 -18 2 -5 6 46 -2 1 12 3 3 2 -1 -9 67 4 0 -7 -1
-1 -2 -2 -2 -3 -3 -4 -6 -6 -3 -2 -3 2 -5 -3 -3 -8 -7 41 18 50 17 3 4 40 8 4 7 27 30 -1 -3 0
Height
5867 5866 5865 5864 5863 5862 5861 5860 5860 5859 5858 5857 5856 5855 5855 5854 5853 5852 5852 5852 5852 5851 5851 5851 5851 5851 5852 5852 5852 5852 5852 5853 5853
5862 5861 5861 5859 5858 5857 5856 5855 5854 5854 5853 5851 5851 5850 5850 5850 5849 5848 5847 5847 5846 5846 5846 5846 5846 5846 5846 5846 5847 5847 5847 5847 5848
5855 5854 5853 5853 5852 5850 5849 5848 5847 5847 5847 5846 5844 5843 5843 5843 5843 5843 5842 5841 5841 5841 5840 5840 5840 5841 5841 5841 5841 5841 5841 5842 5843
5848 5847 5846 5845 5844 5843 5842 5841 5840 5839 5838 5838 5838 5837 5836 5836 5836 5836 5836 5835 5835 5835 5835 5834 5834 5834 5835 5835 5835 5836 5836 5836 5837
5843 5841 5839 5838 5837 5836 5835 5833 5832 5831 5830 5829 5829 5829 5828 5828 5828 5828 5829 5829 5828 5828 5828 5828 5827 5828 5828 5828 5829 5829 5829 5830 5831
5836 5834 5832 5830 5829 5828 5826 5825 5823 5822 5822 5821 5820 5819 5820 5819 5819 5818 5818 5820 5822 5821 5821 5821 5821 5821 5821 5821 5822 5822 5823 5824 5825
5827 5826 5824 5822 5820 5819 5817 5816 5815 5813 5812 5811 5810 5809 5809 5810 5809 5809 5809 5809 5810 5812 5812 5813 5813 5813 5813 5814 5815 5816 5817 5817 5818
5819 5817 5815 5813 5811 5810 5808 5807 5805 5804 5802 5801 5800 5798 5797 5798 5799 5799 5800 5798 5800 5801 5803 5804 5805 5805 5806 5806 5807 5808 5809 5810 5811
5809 5807 5805 5802 5800 5799 5797 5795 5793 5792 5790 5789 5788 5786 5786 5786 5787 5787 5788 5787 5788 5789 5791 5793 5795 5796 5796 5797 5799 5800 5800 5802 5803
5800 5797 5794 5792 5789 5787 5785 5783 5782 5779 5777 5776 5775 5775 5773 5772 5772 5773 5775 5776 5776 5777 5779 5781 5783 5784 5786 5788 5789 5791 5792 5793 5795
5791 5787 5784 5781 5779 5776 5775 5772 5770 5767 5763 5761 5759 5759 5758 5757 5757 5757 5759 5762 5762 5765 5767 5768 5771 5773 5775 5777 5778 5780 5782 5784 5786
5780 5777 5774 5771 5768 5765 5763 5761 5758 5755 5751 5748 5744 5741 5740 5740 5740 5740 5741 5744 5748 5750 5753 5756 5757 5760 5762 5764 5767 5768 5770 5773 5775
5771 5768 5765 5761 5758 5755 5752 5749 5746 5743 5739 5736 5733 5731 5728 5725 5724 5724 5724 5726 5730 5735 5738 5742 5745 5747 5749 5752 5755 5757 5759 5762 5764
5763 5760 5756 5752 5749 5745 5742 5738 5734 5731 5727 5724 5720 5718 5715 5712 5710 5708 5708 5708 5711 5716 5722 5726 5731 5734 5736 5740 5743 5745 5749 5751 5753
5755 5751 5748 5743 5739 5735 5731 5728 5723 5718 5714 5710 5706 5701 5698 5694 5692 5690 5689 5690 5691 5696 5702 5709 5716 5721 5724 5726 5729 5733 5736 5740 5742
5747 5743 5739 5735 5730 5726 5721 5717 5712 5706 5700 5698 5693 5688 5682 5678 5673 5667 5665 5665 5669 5673 5682 5690 5699 5706 5710 5712 5716 5720 5724 5726 5728
5739 5734 5730 5726 5721 5716 5711 5706 5701 5696 5688 5683 5679 5675 5669 5657 5647 5637 5631 5635 5642 5652 5663 5674 5682 5690 5696 5698 5702 5704 5710 5710 5714
5731 5726 5721 5716 5711 5706 5700 5694 5689 5685 5678 5671 5663 5658 5649 5636 5620 5613 5611 5612 5620 5631 5646 5658 5666 5674 5684 5683 5687 5688 5693 5697 5700
5721 5717 5712 5707 5702 5697 5691 5685 5679 5674 5669 5662 5651 5641 5629 5613 5610 5607 5606 5607 5614 5622 5633 5643 5653 5660 5668 5672 5666 5672 5679 5683 5688
5714 5709 5704 5700 5695 5689 5683 5677 5672 5667 5661 5654 5645 5632 5618 5607 5605 5601 5599 5607 5605 5610 5624 5633 5643 5648 5656 5655 5652 5657 5665 5670 5673